Location: Namasale
(1.5000°N, 32.6167°E)
Time: 09:01:24
(UTC+00:00)

SR - Pass Details

Date: 15 April 2021
Orbit: 573 x 882 km, 66.7° (Epoch: 16 May)

Event Time Altitude Azimuth Distance (km) Brightness Sun altitude
Rises 17:54:19 0° 304° (NW) 3,211 ? -30.4°
Reaches altitude 10° 17:58:25 10° 273° (W) 2,206 ? -31.4°
Maximum altitude 18:00:12 12° 252° (WSW) 2,047 ? -31.8°
Drops below altitude 10° 18:01:57 10° 231° (SW) 2,135 ? -32.2°
Enters shadow 18:04:26 - 208° (SSW) 2,612 ? -32.8°
